McGuire AFB, NJ

12:06 PM EST on November 17, 2019 (GMT -0500)
McGuire Air Force Base

Weather History for KWRI - October, 2019

Change the Weather History Date:

Sunday, October 20, 2019

  Actual Average Record
Temperature  
Mean Temperature 48 °F -  
Max Temperature 57 °F 62 °F 77 °F (2001)
Min Temperature 39 °F 42 °F 30 °F (2008)
Degree Days  
Heating Degree Days 17    
Moisture  
Dew Point 51 °F    
Average Humidity 96    
Maximum Humidity 100    
Minimum Humidity 77    
Precipitation  
Precipitation 0.31 in - - ()
Sea Level Pressure  
Sea Level Pressure 29.97 in    
Wind  
Wind Speed 6 mph (NE)    
Max Wind Speed 16 mph    
Max Gust Speed 23 mph    
Visibility 9 miles    
Events Rain    
Averages and records for this station are not official NWS values.
T = Trace of Precipitation, MM = Missing Value Source: NWS Daily Summary

Daily Weather History Graph

Daily Weather History Graph

Search for Another Location

Airport or City:

Astronomy

Oct. 20, 2019 Rise Set
Actual Time 7:13 AM EDT 6:11 PM EDT
Civil Twilight 6:46 AM EDT 6:39 PM EDT
Nautical Twilight 6:14 AM EDT 7:10 PM EDT
Astronomical Twilight 5:43 AM EDT 7:42 PM EDT
Moon 11:18 PM EDT (10/20) 1:39 PM EDT (10/20)
Length of Visible Light 11h 52m
Length of Day
10h 57m
Waning Gibbous, 59% of the Moon is Illuminated
Oct 20
Waning Gibbous
Oct 21
Last Quarter
Oct 27
New
Nov 4
First Quarter
Nov 12
Full

Hourly Weather History & Observations

Time (EDT) Temp. Dew Point Humidity Pressure Visibility Wind Dir Wind Speed Gust Speed Precip Events Conditions
12:56 AM 44.1 °F 41.4 °F 90% 30.04 in 10.0 mi Calm Calm - N/A   Mostly Cloudy
1:56 AM 42.3 °F 40.5 °F 93% 30.03 in 10.0 mi Calm Calm - N/A   Partly Cloudy
2:56 AM 41.4 °F 39.7 °F 94% 30.02 in 10.0 mi Calm Calm - N/A   Overcast
3:56 AM 41.9 °F 40.6 °F 95% 30.01 in 10.0 mi Calm Calm - N/A   Partly Cloudy
4:56 AM 39.7 °F 38.7 °F 96% 30.00 in 10.0 mi Calm Calm - N/A   Clear
5:56 AM 40.5 °F 38.8 °F 94% 30.00 in 10.0 mi Calm Calm - N/A   Clear
6:56 AM 41.0 °F 39.9 °F 96% 29.99 in 10.0 mi Calm Calm - N/A   Clear
7:56 AM 44.2 °F 42.6 °F 94% 30.02 in 10.0 mi Calm Calm - N/A   Scattered Clouds
8:56 AM 48.0 °F 46.4 °F 94% 30.03 in 10.0 mi Calm Calm - N/A   Scattered Clouds
9:56 AM 51.8 °F 48.4 °F 88% 30.03 in 10.0 mi Calm Calm - N/A   Mostly Cloudy
10:56 AM 55.4 °F 50.0 °F 82% 30.02 in 10.0 mi Calm Calm - N/A   Scattered Clouds
11:18 AM 57.2 °F 50.0 °F 77% 30.03 in 10.0 mi NNE 3.5 mph - N/A   Partly Cloudy
11:27 AM 57.2 °F 51.8 °F 82% 30.03 in 10.0 mi NE 3.5 mph - N/A Rain Light Rain
11:56 AM 57.6 °F 52.7 °F 84% 30.02 in 10.0 mi NE 3.5 mph - 0.00 in Rain Light Rain
11:57 AM 57.2 °F 53.6 °F 88% 30.02 in 10.0 mi NE 3.5 mph - N/A   Mostly Cloudy
12:05 PM 57.2 °F 53.6 °F 88% 30.02 in 10.0 mi NE 3.5 mph - N/A   Overcast
12:06 PM 57.2 °F 53.6 °F 88% 30.02 in 10.0 mi NE 3.5 mph - N/A Rain Light Rain
12:14 PM 57.2 °F 53.6 °F 88% 30.02 in 10.0 mi NNE 4.6 mph - N/A   Overcast
12:20 PM 57.2 °F 53.6 °F 88% 30.02 in 10.0 mi NE 4.6 mph - N/A Rain Light Rain
12:56 PM 57.0 °F 54.1 °F 90% 30.01 in 10.0 mi NNE 5.8 mph - 0.02 in Rain Light Rain
1:56 PM 55.6 °F 54.7 °F 97% 29.98 in 7.0 mi NE 9.2 mph - 0.11 in Rain Light Rain
2:36 PM 55.4 °F 55.4 °F 100% 29.96 in 7.0 mi NE 10.4 mph - N/A Rain Light Rain
2:56 PM 55.9 °F 55.9 °F 100% 29.95 in 5.0 mi NE 11.5 mph - 0.08 in Rain Rain
3:03 PM 55.4 °F 55.4 °F 100% 29.95 in 5.0 mi NE 9.2 mph - N/A Rain Rain
3:18 PM 55.4 °F 55.4 °F 100% 29.95 in 6.0 mi ENE 12.7 mph - N/A Rain Light Rain
3:33 PM 55.4 °F 55.4 °F 100% 29.95 in 6.0 mi NE 10.4 mph - N/A Rain Light Rain
3:56 PM 55.6 °F 55.6 °F 100% 29.95 in 5.0 mi ENE 12.7 mph - 0.10 in Rain Rain
4:07 PM 55.4 °F 55.4 °F 100% 29.94 in 4.0 mi ENE 12.7 mph - N/A Rain Rain
4:26 PM 55.4 °F 55.4 °F 100% 29.94 in 4.0 mi NE 11.5 mph - N/A Rain Rain
4:31 PM 55.4 °F 55.4 °F 100% 29.94 in 4.0 mi NE 12.7 mph - N/A Rain Rain
4:41 PM 55.4 °F 55.4 °F 100% 29.93 in 4.0 mi NE 11.5 mph - N/A Rain Rain
4:56 PM 54.9 °F 54.9 °F 100% 29.93 in 3.0 mi ENE 12.7 mph - N/A Rain Rain
5:36 PM 53.6 °F 53.6 °F 100% 29.93 in 7.0 mi NE 12.7 mph - N/A Rain Light Rain
5:56 PM 53.8 °F 53.8 °F 100% 29.93 in 7.0 mi NE 11.5 mph - N/A Rain Light Rain
5:57 PM 53.6 °F 53.6 °F 100% 29.93 in 7.0 mi NE 12.7 mph - N/A Rain Rain
6:02 PM 53.6 °F 53.6 °F 100% 29.93 in 7.0 mi NE 13.8 mph - N/A Rain Light Rain
6:44 PM 53.6 °F 53.6 °F 100% 29.93 in 10.0 mi NE 12.7 mph - N/A Rain Light Rain
6:56 PM 53.1 °F 53.1 °F 100% 29.93 in 10.0 mi NE 10.4 mph - N/A Rain Light Rain
7:06 PM 53.6 °F 53.6 °F 100% 29.93 in 10.0 mi NNE 12.7 mph - N/A Rain Light Rain
7:12 PM 53.6 °F 53.6 °F 100% 29.93 in 10.0 mi NNE 12.7 mph - N/A   Overcast
7:44 PM 51.8 °F 51.8 °F 100% 29.93 in 10.0 mi NNE 15.0 mph - N/A Rain Light Rain
7:56 PM 52.5 °F 52.5 °F 100% 29.93 in 10.0 mi NNE 13.8 mph - N/A Rain Light Rain
8:08 PM 51.8 °F 51.8 °F 100% 29.93 in 10.0 mi NNE 15.0 mph - N/A   Overcast
8:23 PM 51.8 °F 51.8 °F 100% 29.93 in 10.0 mi NNE 13.8 mph - N/A   Overcast
9:23 PM 51.8 °F 51.8 °F 100% 29.94 in 10.0 mi NNE 13.8 mph 23.0 mph N/A   Overcast
9:43 PM 51.8 °F 51.8 °F 100% 29.94 in 10.0 mi NNE 16.1 mph - N/A   Overcast
9:56 PM 52.3 °F 52.3 °F 100% 29.94 in 10.0 mi NNE 12.7 mph - N/A   Overcast
9:57 PM 51.8 °F 51.8 °F 100% 29.94 in 10.0 mi NNE 12.7 mph - N/A Rain Light Rain
10:11 PM 51.8 °F 51.8 °F 100% 29.94 in 10.0 mi NNE 10.4 mph - N/A   Overcast
10:24 PM 51.8 °F 51.8 °F 100% 29.94 in 10.0 mi NNE 11.5 mph - N/A   Light Drizzle
10:31 PM 51.8 °F 51.8 °F 100% 29.95 in 10.0 mi NNE 12.7 mph - N/A   Overcast
10:33 PM 51.8 °F 51.8 °F 100% 29.95 in 10.0 mi NNE 9.2 mph - N/A   Light Drizzle
10:56 PM 52.2 °F 52.2 °F 100% 29.95 in 9.0 mi NNE 10.4 mph - N/A Rain Light Rain
11:02 PM 51.8 °F 51.8 °F 100% 29.95 in 8.0 mi NNE 11.5 mph - N/A Rain Light Rain
11:17 PM 51.8 °F 51.8 °F 100% 29.95 in 8.0 mi NNE 12.7 mph - N/A Rain Light Rain
11:56 PM 52.0 °F 52.0 °F 100% 29.94 in 10.0 mi NNE 10.4 mph - N/A Rain Light Rain